Location: *
(43.9900°N, 3.4811°E)
Time: 22:53:05
(UTC+00:00)

Resurs 1-3 - Pass Details

Date: 25 August 2019
Orbit: 630 x 632 km, 98.0° (Epoch: 23 October)

Event Time Altitude Azimuth Distance (km) Brightness Sun altitude
Exits shadow 20:18:53 13° 186° (S) 1,805 5.7 -17.7°
Maximum altitude 20:22:38 51° 260° (W) 796 4.3 -18.2°
Drops below altitude 10° 20:26:56 10° 337° (NNW) 2,022 7.1 -18.9°
Sets 20:29:11 0° 342° (NNW) 2,935 7.9 -19.2°
